When you browse on this site, cookies collect data to enhance your experience and personalize the content and advertising you see.
Visit our Privacy Policy to learn more. By continuing to use the site, you agree to this use of cookies and data.
  • In Latvia
  • List of Countries
  • For 7 days
  • Water Temperature
  • Satellite Maps
  • Weather Map
  • Weather Widgets
  • user-avatar
    Login

    Hourly Weather Pinsk

    Today, 20 April, Saturday

    Time Temperature Precipitation Wind Pressure Humidity
    00:00 +8°C° 0 mm 0 mps 759 mmHg 53%
    01:00 +7°C° 0 mm 0 mps 759 mmHg 55%
    02:00 +7°C° 0 mm 0 mps 759 mmHg 56%
    03:00 +7°C° 0 mm 1 mps 759 mmHg 58%
    04:00 +7°C° 0 mm 1 mps 759 mmHg 59%
    05:00 +6°C° 0 mm 2 mps 759 mmHg 60%
    06:00 +8°C° 0 mm 2 mps 759 mmHg 58%
    07:00 +9°C° 0 mm 2 mps 758 mmHg 56%
    08:00 +12°C° 0 mm 2 mps 758 mmHg 54%
    09:00 +13°C° 0 mm 2 mps 758 mmHg 50%
    10:00 +15°C° 0 mm 2 mps 758 mmHg 46%
    11:00 +16°C° 0 mm 2 mps 757 mmHg 41%
    12:00 +17°C° 0 mm 3 mps 757 mmHg 40%
    13:00 +17°C° 0 mm 3 mps 757 mmHg 39%
    14:00 +17°C° 0 mm 3 mps 756 mmHg 38%
    15:00 +17°C° 0 mm 3 mps 756 mmHg 37%
    16:00 +17°C° 0 mm 4 mps 756 mmHg 36%
    17:00 +17°C° 0 mm 4 mps 755 mmHg 36%
    18:00 +14°C° 0 mm 3 mps 755 mmHg 40%
    19:00 +13°C° 0 mm 3 mps 755 mmHg 45%
    20:00 +12°C° 0 mm 2 mps 755 mmHg 49%
    21:00 +10°C° 0 mm 2 mps 755 mmHg 55%
    22:00 +9°C° 0 mm 2 mps 754 mmHg 61%
    23:00 +8°C° 0 mm 2 mps 754 mmHg 67%

    Tomorrow, 21 April, Sunday

    Time Temperature Precipitation Wind Pressure Humidity
    00:00 +8°C° 0 mm 2 mps 754 mmHg 71%
    01:00 +8°C° 0 mm 2 mps 754 mmHg 76%
    02:00 +7°C° 0 mm 2 mps 754 mmHg 81%
    03:00 +7°C° 0 mm 2 mps 753 mmHg 82%
    04:00 +7°C° 0 mm 2 mps 753 mmHg 84%
    05:00 +8°C° 0 mm 2 mps 753 mmHg 85%
    06:00 +9°C° 0.2 mm 1 mps 753 mmHg 83%
    07:00 +10°C° 0.2 mm 1 mps 753 mmHg 80%
    08:00 +11°C° 0.2 mm 1 mps 753 mmHg 78%
    09:00 +11°C° 0.7 mm 1 mps 753 mmHg 73%
    10:00 +12°C° 0.7 mm 1 mps 752 mmHg 68%
    11:00 +13°C° 0.7 mm 1 mps 752 mmHg 64%
    12:00 +14°C° 1 mm 1 mps 752 mmHg 62%
    13:00 +14°C° 1 mm 1 mps 752 mmHg 59%
    14:00 +15°C° 1 mm 2 mps 752 mmHg 57%
    15:00 +15°C° 0.2 mm 2 mps 752 mmHg 57%
    16:00 +15°C° 0.2 mm 2 mps 752 mmHg 57%
    17:00 +15°C° 0.2 mm 2 mps 751 mmHg 57%
    18:00 +13°C° 0.3 mm 3 mps 752 mmHg 64%
    19:00 +11°C° 0.3 mm 3 mps 752 mmHg 72%
    20:00 +10°C° 0.3 mm 3 mps 752 mmHg 79%
    21:00 +9°C° 0.2 mm 3 mps 753 mmHg 81%
    22:00 +8°C° 0.2 mm 4 mps 753 mmHg 83%
    23:00 +7°C° 0.2 mm 4 mps 753 mmHg 85%

    Day after tomorrow, 22 April, Monday

    Time Temperature Precipitation Wind Pressure Humidity
    00:00 +7°C° 0 mm 4 mps 754 mmHg 83%
    01:00 +7°C° 0 mm 4 mps 754 mmHg 81%
    02:00 +6°C° 0 mm 4 mps 755 mmHg 80%
    03:00 +6°C° 0 mm 4 mps 755 mmHg 80%
    04:00 +5°C° 0 mm 4 mps 755 mmHg 81%
    05:00 +5°C° 0 mm 4 mps 756 mmHg 82%
    06:00 +6°C° 0 mm 4 mps 756 mmHg 76%
    07:00 +7°C° 0 mm 5 mps 757 mmHg 69%
    08:00 +9°C° 0 mm 5 mps 757 mmHg 63%
    09:00 +10°C° 0 mm 5 mps 757 mmHg 56%
    10:00 +13°C° 0 mm 6 mps 758 mmHg 48%
    11:00 +14°C° 0 mm 6 mps 758 mmHg 41%
    12:00 +14°C° 0 mm 6 mps 758 mmHg 40%
    13:00 +15°C° 0 mm 6 mps 758 mmHg 39%
    14:00 +15°C° 0 mm 6 mps 758 mmHg 38%
    15:00 +15°C° 0 mm 6 mps 758 mmHg 39%
    16:00 +15°C° 0 mm 5 mps 757 mmHg 40%
    17:00 +14°C° 0 mm 5 mps 757 mmHg 41%
    18:00 +13°C° 0 mm 5 mps 758 mmHg 45%
    19:00 +12°C° 0 mm 4 mps 758 mmHg 48%
    20:00 +11°C° 0 mm 3 mps 758 mmHg 52%
    21:00 +10°C° 0 mm 3 mps 758 mmHg 54%
    22:00 +8°C° 0 mm 4 mps 758 mmHg 56%
    23:00 +8°C° 0 mm 4 mps 759 mmHg 59%

    23 April, Tuesday

    Time Temperature Precipitation Wind Pressure Humidity
    00:00 +7°C° 0 mm 4 mps 759 mmHg 61%
    01:00 +6°C° 0 mm 4 mps 759 mmHg 64%
    02:00 +6°C° 0 mm 4 mps 759 mmHg 66%
    03:00 +6°C° 0 mm 4 mps 759 mmHg 67%
    04:00 +5°C° 0 mm 4 mps 759 mmHg 68%
    05:00 +5°C° 0 mm 4 mps 759 mmHg 69%
    06:00 +7°C° 0 mm 5 mps 759 mmHg 63%
    07:00 +8°C° 0 mm 5 mps 759 mmHg 57%
    08:00 +10°C° 0 mm 6 mps 759 mmHg 52%
    09:00 +11°C° 0 mm 7 mps 759 mmHg 47%
    10:00 +12°C° 0 mm 7 mps 759 mmHg 43%
    11:00 +15°C° 0 mm 7 mps 759 mmHg 38%
    12:00 +15°C° 0 mm 8 mps 758 mmHg 38%
    13:00 +16°C° 0 mm 8 mps 758 mmHg 37%
    14:00 +16°C° 0 mm 8 mps 758 mmHg 36%
    15:00 +16°C° 0 mm 8 mps 757 mmHg 38%
    16:00 +16°C° 0 mm 7 mps 757 mmHg 40%
    17:00 +16°C° 0 mm 7 mps 757 mmHg 42%
    18:00 +14°C° 0 mm 6 mps 757 mmHg 45%
    19:00 +13°C° 0 mm 6 mps 757 mmHg 49%
    20:00 +10°C° 0 mm 5 mps 757 mmHg 53%
    21:00 +10°C° 0 mm 5 mps 757 mmHg 54%
    22:00 +9°C° 0 mm 5 mps 757 mmHg 55%
    23:00 +9°C° 0 mm 5 mps 757 mmHg 57%

    24 April, Wednesday

    Time Temperature Precipitation Wind Pressure Humidity
    00:00 +8°C° 0 mm 5 mps 757 mmHg 58%
    01:00 +8°C° 0 mm 6 mps 757 mmHg 60%
    02:00 +8°C° 0 mm 6 mps 757 mmHg 61%
    03:00 +8°C° 0 mm 6 mps 757 mmHg 61%
    04:00 +7°C° 0 mm 6 mps 757 mmHg 62%
    05:00 +7°C° 0 mm 6 mps 757 mmHg 62%
    06:00 +8°C° 0 mm 7 mps 757 mmHg 58%
    07:00 +9°C° 0 mm 8 mps 757 mmHg 55%
    08:00 +11°C° 0 mm 9 mps 758 mmHg 51%
    09:00 +12°C° 0 mm 9 mps 757 mmHg 48%
    10:00 +13°C° 0 mm 9 mps 757 mmHg 45%
    11:00 +16°C° 0 mm 9 mps 757 mmHg 41%
    12:00 +16°C° 0 mm 9 mps 757 mmHg 40%
    13:00 +17°C° 0 mm 9 mps 757 mmHg 39%
    14:00 +18°C° 0 mm 9 mps 757 mmHg 38%
    15:00 +17°C° 0 mm 8 mps 757 mmHg 39%
    16:00 +17°C° 0 mm 7 mps 757 mmHg 41%
    17:00 +17°C° 0 mm 7 mps 757 mmHg 43%
    18:00 +15°C° 0 mm 6 mps 757 mmHg 44%
    19:00 +14°C° 0 mm 6 mps 757 mmHg 45%
    20:00 +13°C° 0 mm 5 mps 757 mmHg 47%
    21:00 +13°C° 0 mm 5 mps 757 mmHg 49%
    22:00 +12°C° 0 mm 5 mps 757 mmHg 51%
    23:00 +12°C° 0 mm 5 mps 758 mmHg 53%

    25 April, Thursday

    Time Temperature Precipitation Wind Pressure Humidity
    00:00 +12°C° 0 mm 5 mps 758 mmHg 56%
    01:00 +12°C° 0 mm 5 mps 758 mmHg 59%
    02:00 +10°C° 0 mm 5 mps 758 mmHg 62%
    03:00 +10°C° 0 mm 5 mps 758 mmHg 63%
    04:00 +10°C° 0 mm 5 mps 758 mmHg 64%
    05:00 +10°C° 0 mm 5 mps 758 mmHg 66%
    06:00 +10°C° 0 mm 5 mps 758 mmHg 64%
    07:00 +11°C° 0 mm 6 mps 758 mmHg 63%
    08:00 +11°C° 0 mm 6 mps 758 mmHg 62%
    09:00 +14°C° 0 mm 6 mps 758 mmHg 57%
    10:00 +15°C° 0 mm 7 mps 758 mmHg 52%
    11:00 +17°C° 0 mm 7 mps 758 mmHg 47%
    12:00 +18°C° 0 mm 7 mps 758 mmHg 45%
    13:00 +20°C° 0 mm 7 mps 757 mmHg 43%
    14:00 +21°C° 0 mm 7 mps 757 mmHg 42%
    15:00 +21°C° 0 mm 6 mps 757 mmHg 43%
    16:00 +20°C° 0 mm 6 mps 756 mmHg 44%
    17:00 +20°C° 0 mm 6 mps 756 mmHg 45%
    18:00 +19°C° 0 mm 5 mps 756 mmHg 50%
    19:00 +16°C° 0 mm 5 mps 756 mmHg 54%
    20:00 +14°C° 0 mm 4 mps 756 mmHg 59%
    21:00 +14°C° 0 mm 4 mps 756 mmHg 59%
    22:00 +13°C° 0 mm 4 mps 755 mmHg 59%
    23:00 +13°C° 0 mm 5 mps 755 mmHg 60%
    Show more